• MPC Preparation (Info)

  • MPEC 2016-O195: 2014 DQ143

    The following Minor Planet Electronic Circular may be linked-to from your own Web pages, but must not otherwise be redistributed electronically.

    A form allowing access to any MPEC is at the bottom of this page.


    Read MPEC 2016-O194 Read MPEC 2016-O196


    M.P.E.C. 2016-O195                               Issued 2016 July 17, 15:56 UT
    
         The Minor Planet Electronic Circulars contain information on unusual
             minor planets and routine data on comets.  They are published
        on behalf of Division F of the International Astronomical Union by the
              Minor Planet Center, Smithsonian Astrophysical Observatory,
                              Cambridge, MA 02138, U.S.A.
    
                 Prepared using the Tamkin Foundation Computer Network
    
                                  MPC@CFA.HARVARD.EDU
                URL https://www.minorplanetcenter.net/    ISSN 1523-6714
    
                                      2014 DQ143
    
    Observations:
         K14DE3Q* C2014 02 26.51310 12 32 11.408-02 46 19.22         22.2 wLEO195F51
         K14DE3Q  C2014 02 26.52549 12 32 11.335-02 46 19.02         22.4 wLEO195F51
         K14DE3Q  C2014 02 26.53785 12 32 11.278-02 46 18.79         22.5 wLEO195F51
         K14DE3Q  C2014 02 26.55021 12 32 11.229-02 46 18.52         22.3 wLEO195F51
         K14DE3Q  C2014 04 04.40582 12 29 03.626-02 32 15.27         22.4 wLEO195F51
         K14DE3Q  C2014 04 04.42857 12 29 03.537-02 32 14.61         22.4 wLEO195F51
         K14DE3Q  C2014 04 04.43991 12 29 03.479-02 32 14.56         22.4 wLEO195F51
         K14DE3Q  C2014 04 29.30572 12 27 00.280-02 23 19.23         22.2 wLEO195F51
         K14DE3Q  C2014 04 29.31767 12 27 00.224-02 23 18.84         22.5 wLEO195F51
         K14DE3Q  C2014 04 29.32964 12 27 00.156-02 23 18.82         22.5 wLEO195F51
         K14DE3Q  C2014 04 29.34163 12 27 00.130-02 23 18.49         22.7 wLEO195F51
         K14DE3Q  C2015 02 16.50308 12 38 30.096-04 26 13.91         22.4 wLEO195F51
         K14DE3Q  C2015 02 16.51579 12 38 30.062-04 26 13.77         22.3 wLEO195F51
         K14DE3Q  C2015 02 16.52847 12 38 29.997-04 26 13.55         22.3 wLEO195F51
         K14DE3Q  C2015 02 16.54116 12 38 29.952-04 26 13.58         22.6 wLEO195F51
         K14DE3Q  C2015 02 27.54301 12 37 45.582-04 23 24.91         22.7 wLEO195F51
         K14DE3Q  C2015 02 27.55556 12 37 45.536-04 23 24.73         22.5 wLEO195F51
         K14DE3Q  C2015 02 27.56809 12 37 45.475-04 23 24.72         22.3 wLEO195F51
         K14DE3Q  C2015 02 27.58061 12 37 45.409-04 23 24.50         22.4 wLEO195F51
    
    Observer details:
    F51 Pan-STARRS 1, Haleakala.  Observers B. Gibson, T. Goggia, N. Primak,
        A. Schultz, M. Willman.  Measurers K. Chambers, S. Chastel, Y.-T. Chen,
        L. Denneau, H. Flewelling, M. Holman, M. Huber, R. Jedicke, M. Lackner,
        E. Lilly, H.-W. Lin, E. Magnier, M. Micheli, M. Payne, P. Veres,
        R. Wainscoat, C. Waters, R. Weryk.  1.8-m Ritchey-Chretien + CCD.
    
    Orbital elements:
    2014 DQ143
    Epoch 2016 July 31.0 TT = JDT 2457600.5                 MPC
    M 358.68661              (2000.0)            P               Q
    n   0.00139712     Peri.  189.09447     -0.95324852     +0.29439157
    a  79.2464526      Node     8.95988     -0.24235000     -0.60996175
    e   0.5513916      Incl.   25.96891     -0.18050964     -0.73571752
    P 705              H    6.7           G   0.15           U   5
    Residuals in seconds of arc
    140226 F51  0.2+  0.1+    140429 F51  0.0   0.1+    150216 F51  0.1-  0.1-
    140226 F51  0.1-  0.1+    140429 F51  0.0   0.2+    150227 F51  0.0   0.1+
    140226 F51  0.1-  0.1+    140429 F51  0.2-  0.0     150227 F51  0.1+  0.1+
    140226 F51  0.0   0.1+    140429 F51  0.2+  0.2+    150227 F51  0.1+  0.1-
    140404 F51  0.4-  0.3-    150216 F51  0.0   0.0     150227 F51  0.1-  0.1-
    140404 F51  0.1+  0.2-    150216 F51  0.2+  0.0
    140404 F51  0.2+  0.4-    150216 F51  0.1-  0.1+
    
    Ephemeris:
    2014 DQ143               a,e,i = 79.25, 0.55, 26                 q = 35.551
    Date    TT    R. A. (2000) Decl.     Delta      r     Elong.  Phase     V
    2016 06 17    12 35 59.7 -05 30 37  35.3466 35.6131   104.4     1.6    22.4
    ...
    2016 07 02    12 36 02.7 -05 32 43  35.5942 35.6112    90.1     1.6    22.4
    ...
    2016 07 10    12 36 13.6 -05 34 49  35.7275 35.6102    82.6     1.6    22.4
    ...
    2016 07 16    12 36 26.0 -05 36 50  35.8259 35.6094    76.9     1.6    22.4
    2016 07 17    12 36 28.4 -05 37 13  35.8421 35.6093    76.0     1.6    22.4
    2016 07 18    12 36 30.9 -05 37 36  35.8583 35.6092    75.0     1.6    22.4
    ...
    2016 07 24    12 36 47.8 -05 40 06  35.9535 35.6085    69.4     1.5    22.4
    ...
    2016 08 01    12 37 15.5 -05 44 00  36.0748 35.6075    61.9     1.4    22.4
    ...
    2016 08 16    12 38 21.9 -05 52 53  36.2779 35.6057    47.8     1.2    22.4
    
    A. U. Tomatic                (C) Copyright 2016 MPC           M.P.E.C. 2016-O195
    

    Read MPEC 2016-O194 Read MPEC 2016-O196


    MPEC number:

    Enter an MPEC number in one of the following forms:

    • 1997-B01 (the full form)
    • J97B01 (the packed version of the full form)
    • B01 (the abbreviated form)